Wind_Speed
8 7 4 3 1 1 1 3 8 3 9 8 7 6 6 8 7 6 2 2 2 4 4 4 1 3 5 5 6 6 3 3 2 2 4 6 7 8 6 6 5 5 5 5 5 5 5 6 5
5 6 5 2 2 4 1 6 10 12 10 8 7 6 6 7 6 6 3 1 3 3 4 4 2 3 4 2 3 4 2 0 1 1 2 2 5 5 6 7 5 6 7 7 6 6 6 6 5
2 5 5 4 7 6 7 9 8 7 8 7 10 7 6 6 7 6 3 2 3 3 3 4 3 3 3 2 1 2 2 2 1 2 1 2 5 4 4 4 4 6 7 7 7 7 8 7 6
1 4 3 4 3 8 10 10 12 8 6 8 10 10 7 6 8 6 4 3 2 1 2 3 4 3 3 5 2 2 2 3 4 2 3 4 3 2 4 2 3 5 6 7 8 8 8 9 9
1 1 8 10 9 12 12 14 10 9 5 6 8 9 8 7 7 4 4 3 2 2 1 1 3 4 3 4 4 2 4 3 2 2 3 3 3 3 2 2 6 6 5 6 9 10 11 13 20
2 5 6 5 8 6 7 10 10 6 5 4 3 4 6 6 3 4 3 3 1 3 3 1 0 3 3 6 3 4 2 1 1 2 3 1 0 3 4 3 6 6 4 7 9 9 13 16 17
5 4 4 2 3 4 5 4 9 7 4 3 3 4 6 3 3 4 3 2 1 4 5 3 1 2 2 4 5 7 6 3 2 0 3 1 0 3 2 4 3 6 5 8 9 11 11 13 14
7 4 5 6 5 4 5 6 4 4 6 7 8 7 7 7 5 7 5 3 3 4 6 4 3 3 2 3 6 7 8 9 3 0 2 2 0 1 1 2 3 3 5 8 10 11 11 12 13
10 8 6 4 5 6 6 5 5 2 3 6 9 7 5 8 8 9 6 6 5 5 6 5 3 3 4 2 5 6 7 5 3 1 3 6 6 4 3 2 4 5 5 6 9 9 11 12 13
9 7 8 7 6 5 5 2 3 2 5 7 8 7 6 6 7 9 8 6 5 4 3 5 6 5 3 2 2 4 6 2 3 4 4 3 5 9 6 4 3 5 5 5 7 7 11 11 11
4 4 3 1 3 3 6 2 3 4 6 7 7 10 9 7 7 7 10 10 8 6 4 5 6 6 5 5 3 2 0 4 6 5 4 6 9 9 7 5 1 3 4 4 5 8 9 10 10
7 5 5 4 5 7 5 5 4 4 6 7 8 9 9 8 9 11 11 12 11 9 6 6 7 8 8 7 5 4 3 2 5 6 7 12 11 10 7 6 3 2 2 2 6 7 7 9 11
4 9 4 3 4 7 10 7 5 2 3 6 10 10 11 11 9 10 13 16 14 12 10 9 8 9 9 9 7 5 3 2 3 4 6 9 15 12 10 7 5 4 1 2 1 4 5 8 9
8 10 4 7 7 9 7 5 2 4 6 7 11 14 16 17 11 10 12 13 15 14 13 11 11 11 10 10 10 8 5 2 4 6 9 10 9 6 5 4 6 6 2 2 3 3 5 5 9
10 7 10 10 10 6 5 2 4 5 7 8 13 15 16 15 13 11 12 13 13 14 12 11 11 11 12 12 11 9 9 6 4 6 8 5 3 9 7 9 9 6 4 4 6 2 3 4 7
12 12 12 8 8 5 4 0 2 6 6 9 12 14 14 8 13 13 17 17 15 13 12 12 12 11 11 12 11 12 8 10 7 8 9 6 5 6 10 9 9 8 5 2 5 1 1 4 4
12 11 9 8 9 7 3 2 3 6 8 10 10 15 9 17 19 16 16 18 17 11 11 11 10 8 8 11 12 13 11 10 10 11 11 11 8 10 8 11 10 10 7 5 1 3 3 4 3
12 12 11 10 8 8 8 4 4 7 10 14 16 12 5 17 17 15 12 17 14 10 11 12 11 8 6 8 9 10 9 9 9 10 10 9 14 12 15 13 12 11 8 7 5 2 2 5 3
12 11 9 9 9 8 9 6 4 6 10 14 14 15 4 12 11 17 21 13 9 9 10 10 9 7 6 5 7 8 9 8 10 11 10 12 11 15 17 15 16 12 9 7 9 9 5 3 4
15 12 10 10 7 7 6 1 5 4 9 13 11 13 10 20 22 15 14 10 8 9 9 9 8 6 6 6 7 4 6 5 5 6 8 3 9 10 17 16 15 12 10 7 9 10 6 0 1
17 13 9 6 5 4 6 2 5 5 8 11 6 6 11 13 12 10 10 9 8 8 9 9 7 6 5 4 10 8 6 1 3 3 6 5 4 12 17 17 14 12 9 7 7 9 7 4 2
18 15 12 10 6 2 2 3 7 6 8 10 8 6 8 9 11 10 8 7 6 6 6 6 5 4 4 3 9 8 4 2 3 5 6 5 9 11 14 13 12 10 9 10 10 8 9 6 5
22 19 14 11 8 3 2 4 7 7 6 7 11 11 8 8 8 8 8 8 7 9 10 9 8 7 6 5 6 7 6 3 2 3 4 5 6 9 11 12 11 10 9 10 9 9 10 8 8
23 19 13 13 7 2 6 5 4 4 4 4 8 11 11 11 13 13 13 11 8 7 6 6 6 6 6 5 6 6 5 4 2 1 1 1 2 5 8 9 10 9 8 9 9 9 9 9 10
25 23 13 12 6 1 5 6 4 2 2 2 6 10 8 8 11 13 14 12 10 10 7 6 4 2 4 6 6 6 5 4 3 1 1 2 2 2 3 4 7 7 6 7 8 9 9 9 11
28 24 16 12 10 2 3 4 7 8 2 2 3 8 7 8 9 12 10 6 9 7 7 8 5 3 3 4 5 6 5 3 2 3 2 1 1 3 4 5 6 9 10 11 12 12 14 14 13
29 28 20 16 11 5 2 4 11 6 6 3 7 3 5 6 7 9 9 4 5 4 6 6 1 2 0 0 1 2 3 4 4 3 1 2 1 3 4 5 6 9 11 11 13 14 15 16 17
28 25 22 18 12 8 2 4 9 1 8 6 6 5 5 4 4 4 5 1 1 2 2 2 2 5 4 5 6 6 2 1 3 2 2 3 3 4 5 6 7 9 11 13 13 15 16 17 18
30 31 24 19 15 9 4 1 8 10 6 12 18 5 8 4 3 4 3 3 7 7 5 4 6 7 7 8 9 10 12 10 5 5 2 3 3 5 5 7 9 10 11 13 15 17 16 18 22
28 34 22 20 14 12 6 5 1 6 11 12 17 8 9 8 7 6 7 6 9 10 11 12 11 12 11 10 12 13 12 5 7 13 5 5 4 7 8 11 12 13 14 14 14 16 18 18 16
Wind_Direction
52 44 46 46 4 5 293 256 263 253 180 173 152 135 129 115 120 133 183 241 51 81 100 121 151 151 152 143 135 133 140 144 131 106 90 84 46 28 30 30 38 38 20 3 6 8 349 336 333
29 20 358 264 244 135 344 220 244 144 161 181 158 138 124 132 123 126 140 42 34 66 85 102 104 168 174 163 175 179 178 341 128 61 52 62 19 26 20 21 31 36 22 359 10 1 349 332 318
37 12 23 28 216 203 162 131 127 150 156 181 171 147 145 124 113 116 107 79 24 91 102 109 118 140 172 189 234 269 213 65 30 106 355 351 30 10 1 17 9 33 24 8 13 15 353 338 318
148 20 330 56 145 187 137 147 152 135 149 164 169 149 132 119 117 120 115 79 85 123 125 130 140 137 169 172 152 65 227 215 94 343 5 309 277 227 35 357 41 31 24 20 37 21 13 349 340
220 133 115 94 110 81 151 112 147 165 156 145 160 146 126 114 125 136 135 102 113 184 198 151 142 147 157 166 157 112 82 150 98 98 346 95 354 210 113 58 59 43 32 31 31 17 14 4 32
189 121 118 64 124 120 113 137 135 172 182 196 174 148 145 117 123 137 120 104 105 209 199 201 130 115 150 167 189 124 91 92 162 129 145 84 97 167 67 76 65 60 32 26 34 18 20 30 38
162 121 48 172 132 93 133 131 139 163 224 238 245 220 177 189 200 184 175 177 211 210 219 187 185 119 147 141 117 75 49 113 351 58 305 165 24 142 329 14 51 59 30 33 28 21 19 35 29
201 162 114 129 158 190 173 154 213 201 227 236 243 233 202 196 223 210 221 244 226 211 219 203 203 162 178 130 100 72 75 79 52 341 95 162 97 143 245 335 46 54 40 36 30 22 24 32 25
219 191 203 215 146 159 171 160 133 172 236 260 256 259 241 237 240 216 234 244 210 234 221 223 234 216 191 152 113 92 85 66 354 50 175 125 158 266 208 302 356 23 59 42 40 25 28 28 24
216 226 234 211 172 162 162 113 8 290 270 282 288 278 266 252 251 225 231 246 221 207 261 275 253 252 216 193 106 96 106 16 328 260 201 165 221 232 244 245 349 51 75 46 25 28 31 26 27
197 163 220 207 163 178 171 171 6 356 336 335 340 323 314 287 258 258 233 238 221 215 239 255 254 250 232 207 170 110 235 344 344 289 242 203 234 238 211 214 5 101 78 48 31 23 25 26 30
176 224 307 355 84 127 114 105 63 17 342 343 316 320 305 285 259 252 219 218 216 219 247 264 253 246 235 217 197 198 249 316 8 17 252 225 244 233 215 207 189 178 70 62 31 18 20 32 30
237 282 317 109 133 119 116 117 95 61 336 324 298 296 281 267 240 240 238 221 222 235 246 262 260 249 235 227 209 224 262 321 318 323 359 261 239 229 214 215 195 221 266 338 336 355 7 26 39
250 252 248 166 115 96 100 88 43 358 343 319 292 301 310 278 252 225 227 218 218 234 235 239 240 248 242 229 219 222 245 288 313 312 303 300 248 226 184 176 221 220 231 76 95 351 354 29 44
208 203 176 149 129 125 107 54 6 348 328 306 301 305 284 289 229 195 209 213 219 228 229 233 237 238 236 227 224 225 239 262 293 306 299 291 266 229 233 244 217 207 218 240 270 242 333 21 48
177 169 160 142 138 148 153 209 335 345 337 330 306 305 309 199 210 217 201 206 219 224 223 233 239 234 235 227 223 233 242 269 286 292 286 301 219 222 196 186 209 199 212 241 166 207 311 4 51
177 149 148 146 173 190 214 249 323 343 345 346 320 319 271 212 211 212 206 201 210 215 230 234 232 233 230 227 228 242 257 267 283 278 272 274 233 226 218 205 206 187 206 213 203 248 30 36 57
180 151 161 169 181 216 236 247 309 335 339 351 350 326 209 194 213 219 188 180 204 213 225 230 224 221 231 231 231 241 250 266 280 282 274 244 236 218 219 207 209 196 207 218 231 213 323 16 26
184 174 182 192 194 223 245 236 297 332 342 355 356 348 341 174 193 154 160 178 185 203 210 217 223 217 217 226 227 237 239 252 266 270 249 251 245 227 211 212 200 200 207 213 228 230 259 318 33
183 188 187 185 184 207 201 269 307 350 2 0 358 28 107 128 134 141 150 146 175 188 196 197 202 194 205 221 216 238 236 234 267 262 273 273 235 226 210 199 187 198 205 214 228 216 226 264 128
180 195 197 195 183 203 193 348 342 354 13 9 3 86 99 118 131 137 132 144 160 174 183 178 169 164 138 104 154 117 117 151 348 263 239 229 218 202 162 166 184 202 205 205 178 185 196 197 212
183 198 203 202 179 202 198 23 11 351 6 25 103 110 111 114 130 128 127 137 133 128 143 135 132 129 136 167 146 136 120 58 10 135 132 127 150 150 165 179 191 200 206 215 203 220 212 226 265
197 187 200 196 190 164 299 28 18 347 24 54 103 97 115 120 115 108 115 110 122 117 124 129 134 123 122 128 149 152 150 139 19 40 146 128 185 187 182 184 201 209 217 230 218 215 219 236 264
208 195 203 210 190 262 342 359 20 15 35 75 108 111 105 113 112 99 98 96 98 113 111 104 98 100 108 132 136 143 148 163 168 173 30 175 160 191 211 217 217 220 240 238 234 229 237 254 270
212 217 216 227 187 249 301 298 287 40 14 91 122 119 121 113 108 104 102 99 88 70 56 53 57 57 100 114 117 122 122 122 115 71 268 241 269 239 209 230 234 234 226 239 247 261 260 259 273
214 223 224 196 191 191 316 302 290 250 228 209 193 124 119 113 104 102 100 94 90 76 73 69 78 113 132 135 130 125 117 97 75 99 95 67 277 284 276 246 224 228 246 250 253 263 274 276 270
224 228 220 197 186 177 275 327 313 228 205 216 245 213 158 136 129 119 120 137 112 111 81 70 191 134 170 196 280 122 137 93 72 349 297 158 189 291 294 274 258 251 250 254 266 271 271 271 273
222 210 209 199 186 182 207 1 0 151 203 255 244 261 226 207 157 137 124 123 347 65 81 143 234 270 257 267 284 283 316 30 82 97 332 345 357 318 299 289 284 276 272 267 261 266 268 267 267
217 209 211 210 207 208 215 256 56 47 339 299 263 256 245 248 273 272 265 300 309 314 308 295 292 281 276 265 265 284 294 314 267 284 274 300 286 270 279 290 291 289 287 280 278 275 275 272 270
218 211 214 218 214 212 213 191 102 5 6 24 190 205 247 234 244 261 279 272 275 283 291 291 289 291 288 279 279 286 308 300 343 290 253 276 306 291 266 287 282 278 280 280 277 276 274 274 270
Height
5904 5906 5907 5907 5910 5910 5910 5913 5912 5914 5916 5916 5916 5916 5916 5916 5917 5920 5917 5917 5917 5917 5917 5916 5917 5917 5918 5918 5918 5919 5919 5919 5919 5919 5918 5918 5919 5920 5919 5919 5919 5918 5918 5917 5917 5917 5915 5915 5914
5905 5906 5906 5907 5909 5909 5910 5910 5910 5913 5914 5915 5915 5915 5916 5916 5916 5917 5917 5918 5917 5918 5918 5917 5917 5917 5918 5917 5917 5919 5920 5919 5920 5919 5919 5917 5918 5919 5920 5920 5919 5918 5917 5917 5917 5916 5915 5913 5911
5907 5907 5908 5906 5907 5907 5909 5910 5911 5913 5913 5914 5915 5914 5915 5915 5916 5916 5917 5918 5917 5916 5917 5917 5917 5917 5917 5917 5917 5917 5918 5919 5919 5918 5919 5918 5918 5919 5920 5920 5919 5918 5917 5916 5916 5916 5914 5911 5910
5908 5909 5909 5908 5907 5906 5908 5910 5912 5912 5913 5914 5915 5916 5915 5914 5914 5915 5916 5916 5916 5916 5916 5916 5916 5916 5916 5917 5918 5917 5917 5918 5917 5918 5918 5918 5918 5918 5919 5919 5918 5918 5918 5917 5915 5915 5912 5909 5906
5909 5911 5911 5908 5908 5908 5909 5910 5912 5914 5915 5914 5914 5913 5914 5913 5914 5915 5915 5915 5915 5916 5916 5916 5917 5916 5916 5917 5917 5917 5917 5917 5917 5916 5917 5917 5917 5917 5918 5918 5918 5918 5918 5917 5915 5914 5912 5909 5909
5910 5911 5911 5910 5909 5909 5910 5911 5912 5913 5913 5913 5912 5913 5913 5913 5914 5915 5915 5914 5915 5915 5915 5915 5915 5916 5917 5916 5917 5917 5916 5917 5916 5916 5916 5917 5916 5916 5917 5918 5918 5919 5919 5917 5915 5913 5911 5909 5910
5910 5911 5911 5910 5909 5910 5911 5912 5913 5914 5913 5911 5911 5913 5913 5912 5912 5913 5913 5913 5913 5914 5915 5914 5915 5915 5916 5916 5916 5916 5914 5915 5915 5915 5915 5915 5916 5916 5918 5918 5918 5918 5918 5916 5914 5914 5913 5911 5911
5909 5912 5911 5911 5909 5910 5910 5912 5912 5914 5912 5911 5911 5912 5912 5910 5910 5911 5912 5913 5913 5913 5914 5913 5914 5914 5915 5916 5916 5916 5914 5914 5915 5913 5914 5915 5916 5916 5917 5918 5917 5918 5917 5916 5915 5915 5914 5912 5910
5908 5912 5912 5911 5911 5911 5911 5910 5911 5911 5909 5910 5909 5909 5910 5910 5910 5910 5910 5912 5912 5913 5913 5913 5914 5915 5915 5915 5916 5916 5915 5915 5915 5913 5913 5914 5915 5916 5917 5918 5918 5918 5917 5917 5916 5915 5914 5913 5911
5907 5910 5910 5912 5912 5912 5911 5911 5911 5912 5911 5910 5909 5908 5908 5908 5909 5909 5910 5911 5912 5912 5913 5913 5913 5915 5915 5914 5914 5915 5915 5912 5914 5915 5914 5914 5916 5916 5916 5917 5918 5917 5918 5917 5917 5917 5917 5914 5912
5907 5910 5909 5912 5913 5913 5913 5913 5912 5911 5911 5910 5908 5907 5907 5907 5908 5908 5909 5909 5911 5911 5912 5911 5910 5911 5912 5912 5912 5913 5914 5913 5913 5913 5913 5914 5915 5915 5916 5917 5918 5918 5918 5917 5917 5918 5917 5915 5914
5908 5909 5911 5913 5912 5912 5913 5913 5912 5912 5911 5909 5907 5905 5904 5904 5905 5906 5906 5907 5909 5910 5910 5909 5908 5910 5911 5911 5911 5913 5914 5914 5914 5913 5913 5914 5914 5914 5915 5915 5917 5918 5918 5917 5918 5918 5918 5917 5916
5908 5908 5913 5913 5912 5911 5911 5911 5910 5911 5909 5906 5904 5901 5900 5901 5901 5903 5904 5906 5908 5909 5908 5908 5909 5909 5910 5911 5911 5911 5912 5913 5913 5913 5913 5913 5912 5912 5914 5914 5916 5918 5917 5917 5918 5918 5918 5917 5916
5906 5907 5911 5910 5910 5910 5910 5910 5909 5908 5905 5903 5901 5897 5897 5897 5897 5899 5901 5903 5905 5907 5906 5907 5907 5908 5909 5910 5910 5911 5911 5912 5912 5912 5911 5911 5911 5912 5910 5913 5915 5917 5917 5917 5918 5919 5918 5917 5916
5904 5907 5908 5909 5910 5910 5909 5909 5906 5904 5902 5900 5898 5894 5892 5890 5892 5894 5897 5901 5902 5904 5904 5904 5905 5906 5907 5908 5909 5909 5909 5910 5911 5911 5910 5909 5909 5911 5912 5913 5914 5916 5917 5917 5918 5919 5918 5917 5916
5904 5908 5909 5910 5910 5910 5909 5907 5906 5903 5901 5899 5894 5891 5888 5887 5889 5891 5893 5897 5900 5901 5901 5903 5904 5905 5905 5906 5907 5906 5906 5908 5909 5909 5909 5909 5909 5908 5910 5912 5913 5915 5917 5917 5917 5918 5918 5916 5916
5905 5908 5909 5911 5911 5909 5908 5906 5905 5902 5899 5896 5891 5887 5883 5884 5887 5889 5889 5894 5896 5898 5900 5902 5902 5903 5903 5905 5905 5905 5905 5906 5906 5907 5907 5907 5908 5908 5910 5911 5912 5915 5916 5916 5916 5917 5916 5916 5916
5905 5907 5909 5910 5910 5908 5906 5905 5903 5901 5897 5893 5888 5885 5881 5880 5884 5885 5888 5891 5895 5896 5899 5900 5901 5900 5902 5903 5903 5903 5903 5903 5904 5904 5904 5903 5905 5906 5908 5910 5912 5914 5915 5915 5917 5917 5916 5916 5917
5905 5906 5908 5909 5909 5907 5905 5904 5903 5902 5897 5893 5888 5883 5879 5879 5882 5885 5889 5892 5894 5896 5899 5900 5900 5900 5900 5902 5903 5902 5902 5902 5902 5902 5900 5898 5901 5903 5906 5908 5911 5913 5914 5914 5915 5916 5916 5916 5917
5903 5906 5908 5908 5908 5907 5904 5903 5903 5902 5899 5894 5889 5886 5883 5883 5885 5886 5888 5890 5895 5897 5899 5899 5899 5899 5900 5900 5901 5900 5899 5901 5901 5900 5899 5899 5900 5901 5903 5906 5909 5912 5912 5913 5913 5914 5915 5916 5917
5903 5906 5907 5908 5907 5905 5904 5904 5902 5902 5900 5896 5892 5891 5890 5890 5891 5893 5894 5895 5896 5897 5898 5898 5898 5898 5899 5898 5899 5900 5900 5901 5901 5899 5899 5899 5899 5900 5901 5905 5908 5911 5912 5912 5913 5914 5915 5916 5917
5902 5904 5906 5907 5907 5906 5905 5905 5903 5902 5901 5899 5894 5893 5894 5894 5894 5894 5896 5898 5899 5899 5899 5898 5899 5898 5899 5898 5900 5901 5901 5901 5901 5900 5901 5901 5901 5901 5903 5906 5908 5909 5910 5911 5913 5913 5914 5915 5916
5901 5902 5904 5905 5906 5906 5905 5905 5904 5902 5902 5900 5898 5896 5896 5896 5897 5897 5897 5899 5900 5899 5898 5898 5898 5897 5897 5899 5900 5900 5901 5902 5902 5902 5902 5902 5903 5903 5904 5906 5908 5909 5910 5912 5913 5913 5914 5915 5916
5899 5902 5905 5905 5906 5906 5906 5905 5904 5904 5903 5902 5900 5900 5899 5898 5898 5898 5898 5899 5897 5898 5899 5900 5900 5900 5899 5898 5899 5899 5900 5901 5903 5904 5904 5905 5905 5905 5905 5907 5908 5909 5910 5911 5912 5914 5914 5914 5915
5898 5901 5905 5906 5906 5907 5905 5905 5905 5905 5903 5903 5902 5901 5901 5901 5899 5899 5899 5898 5898 5902 5903 5903 5904 5904 5902 5900 5899 5900 5901 5902 5902 5903 5904 5905 5906 5907 5907 5907 5908 5909 5910 5911 5911 5912 5913 5913 5914
5897 5900 5904 5905 5906 5906 5905 5904 5903 5903 5904 5903 5903 5902 5902 5901 5902 5899 5900 5899 5901 5904 5906 5905 5905 5904 5903 5903 5901 5900 5901 5901 5903 5903 5904 5905 5906 5907 5907 5906 5906 5906 5907 5908 5909 5910 5911 5911 5912
5894 5898 5902 5902 5904 5906 5905 5903 5901 5899 5902 5904 5904 5904 5904 5903 5902 5902 5901 5900 5903 5905 5906 5906 5905 5905 5905 5905 5903 5901 5902 5902 5903 5905 5904 5903 5903 5905 5905 5905 5905 5905 5905 5904 5905 5906 5908 5909 5909
5891 5896 5899 5900 5903 5904 5904 5902 5900 5900 5901 5902 5904 5905 5904 5904 5903 5903 5901 5900 5900 5902 5904 5905 5905 5905 5904 5903 5901 5901 5902 5904 5903 5903 5905 5903 5901 5903 5903 5903 5903 5903 5902 5902 5902 5902 5903 5904 5905
5887 5891 5895 5898 5900 5902 5903 5903 5901 5901 5902 5902 5903 5903 5905 5904 5904 5903 5902 5900 5899 5901 5902 5902 5903 5903 5902 5900 5899 5901 5903 5904 5904 5902 5901 5901 5899 5898 5900 5901 5900 5899 5899 5899 5899 5898 5898 5899 5899
5883 5888 5892 5895 5898 5900 5901 5903 5901 5901 5900 5893 5897 5902 5905 5905 5905 5905 5904 5902 5901 5899 5898 5897 5898 5898 5898 5897 5898 5899 5900 5903 5900 5900 5898 5898 5898 5896 5896 5897 5897 5896 5895 5894 5894 5894 5894 5894 5893